Regional Weather Roundup
Issued by NWS Newport/Morehead, NC

Home | Current Version | Previous Version | Text Only | Print | Product List | Glossary On
Versions: 1 2 3 4 5 6 7 8 9 10 11 12 13 14 15 16 17 18 19 20 21 22 23 24 25 26 27 28 29 30 31 32 33 34 35 36 37 38 39 40 41 42 43 44 45 46 47 48 49 50
035
ASUS42 KMHX 210425
RWRMHX
WEATHER ROUNDUP FOR EASTERN NORTH CAROLINA
NATIONAL WEATHER SERVICE NEWPORT/MOREHEAD CITY NC
1200 AM EDT SAT OCT 21 2017

NOTE: "FAIR" INDICATES FEW OR NO CLOUDS BELOW 12,000 FEET
WITH NO SIGNIFICANT WEATHER AND/OR OBSTRUCTIONS TO VISIBILITY

NCZ015>017-031-032-045>047-102-103-210500-
NORTH COAST

CITY           SKY/WX    TMP DP  RH WIND       PRES   REMARKS
EDENTON        CLEAR     57  55  94 CALM      30.26S
ELIZABETH CITY CLEAR     55  55 100 CALM      30.25S
KITTY HAWK     CLEAR     60  59  97 CALM      30.24S
MANTEO         CLEAR    N/A N/A N/A CALM      30.26S

$$

NCZ045>047-081-094-103-104-210500-
CENTRAL COAST

CITY           SKY/WX    TMP DP  RH WIND       PRES   REMARKS
FRISCO         CLEAR     60  60 100 NE3       30.25R

$$

NCZ095-097-098-100-101-210500-
SOUTHERN COAST

CITY           SKY/WX    TMP DP  RH WIND       PRES   REMARKS
BEAUFORT       CLEAR     56  54  93 CALM      30.25R
CEDAR ISLAND   NOT AVBL
JACKSONVILLE   CLEAR     56  56 100 W3        30.24R
PINEY ISLAND     N/A    N/A N/A N/A CALM      30.25R
WILMINGTON     CLEAR     57  54  89 CALM      30.25R


$$

NCZ011>013-027>030-043-044-078>080-089-090>093-098-210500-
COASTAL PLAIN

CITY           SKY/WX    TMP DP  RH WIND       PRES   REMARKS
AHOSKIE        CLEAR     52  52 100 CALM      30.26S FOG
CLINTON        CLEAR     55  55  99 CALM      30.26R
ELIZABETHTOWN  NOT AVBL
GOLDSBORO      CLEAR     55  52  88 CALM      30.23R FOG
GREENVILLE     CLEAR     54  54 100 CALM      30.26S
HAVELOCK       CLEAR     57  55  93 CALM      30.26R
KENANSVILLE    CLEAR     50  48  93 CALM      30.26R
KINSTON        CLEAR     50  49  94 CALM      30.26R
NEW BERN       CLEAR     55  55 100 CALM      30.26R FOG
RICHLANDS      CLEAR     54  53  97 CALM      30.25R
ROCKY MOUNT    FOG       53  53 100 CALM      30.26R VSB 1/4
WASHINGTON     CLEAR     55  53  94 CALM      30.26S
WHITEVILLE     CLEAR     56  55  96 CALM      30.24S

$$

AMZ130-135-150-152-154-156-158-170-250-252-270-ANZ085-086-088-633-658-670-210500-
MARINE OBSERVATIONS

STATION/POSITION TIME  TEMP    WIND        PRES    WAVE   SWELL
                       AIR SEA DIR/SP/G            HT/PER HT/PER
                 (UTC) (F)     (DEG/KT/KT) (MB)    (FT/S) (FT/S)
CHESAPEAKE LIGHT NOT AVBL
64 E VA BEACH    0350   67 67  260/  2/  4 1024.7    3/ 9   3/ 9
DUCK             0400   67 70   30/  2/  2 1024.0
2 E DUCK         0400      70                N/A     2/ 7
OREGON INLET     0400      70  310/  1/  1 1024.3
13E OREGON INLT  0348      71                N/A     3/ 8   2/ 8
HATTERAS CG      0400   67 71   50/  4/  5 1024.1
DIAMOND BUOY     0350   73 81  350/  8/ 10 1024.0    3/ 8   3/ 8
CAPE LOOKOUT     0400   70      90/  2/  2 1023.9
BEAUFORT LAB     0400   65 72   20/  1/  1 1024.3
30 SE NEW RVR IN 0408   74     110/  4/  8 1023.8
30 SE NEW RVR IN NOT AVBL
27 SE WRIGHTSVLE 0408   73 76  140/  4/  6 1024.1
5 SE WRIGHTSVLE  0408   72 74  220/  6/  8 1023.9
225 S CAPE HAT   0350   77 80   70/  8/ 10 1022.6    4/ 8   3/ 8
41 SE CHARLESTON 0400   75 80  120/  4/  6 1023.1

$$




USA.gov is the U.S. government's official web portal to all federal, state and local government web resources and services.